User: anonymous   Login
Location: Unspecified
(0.0000°N, 0.0000°E)
Time: 02:57:21
(UTC+00:00)
Language:

PLEIADES 1B - Orbit

View from above orbital plane
View from above orbital plane
View from above satellite
View from above satellite

Ground track
Ground track

The orbit data is extracted from the following two-line orbital elements,

1 39019U 12068A   14298.81038418  .00000599  00000-0  13853-3 0  1983
2 39019 098.1890 011.9462 0001528 082.3004 277.8372 14.58590596100992
Epoch (UTC): 25 October 2014 19:26:57
Eccentricity: 0.0001528
inclination: 98.1890°
perigee height: 696 km
apogee height: 699 km
right ascension of ascending node: 11.9462°
argument of perigee: 82.3004°
revolutions per day: 14.58590596
mean anomaly at epoch: 277.8372°
orbit number at epoch: 10099

The dashed part of the orbit path shows where the satellite is in the earth's shadow,  

DLR